Location: Central Falls
(41.8900°N, 71.3929°W)
Time: 03:20:36
(UTC+00:00)

Tiros 1 - Pass Details

Date: 15 December 2023
Orbit: 625 x 658 km, 48.4° (Epoch: 01 March)

Event Time Altitude Azimuth Distance (km) Brightness Sun altitude
Rises 06:42:11 0° 264° (W) 2,958 - -58.6°
Reaches altitude 10° 06:44:35 10° 270° (W) 2,054 - -58.2°
Maximum altitude 06:49:10 47° 345° (NNW) 867 - -57.4°
Drops below altitude 10° 06:53:48 10° 60° (ENE) 2,072 - -56.6°
Sets 06:56:14 0° 66° (ENE) 2,987 - -56.2°
